User: anonymous   Login
Location: Quebec
(46.8000°N, 71.2500°W)
Time: 16:52:41
(UTC-04:00)
Language:

ISS - Orbit

View from above orbital plane
View from above orbital plane
View from above satellite
View from above satellite

Ground track
Ground track

The orbit data is extracted from the following two-line orbital elements,

1 25544U 98067A   18233.53883908  .00016717  00000-0  10270-3 0  9019
2 25544  51.6376  53.0241 0005488  79.1987 280.9783 15.53869190  8676
Epoch (UTC): 21 August 2018 12:55:55
Eccentricity: 0.0005488
inclination: 51.6376°
perigee height: 402 km
apogee height: 409 km
right ascension of ascending node: 53.0241°
argument of perigee: 79.1987°
revolutions per day: 15.53869190
mean anomaly at epoch: 280.9783°
orbit number at epoch: 867

The dashed part of the orbit path shows where the satellite is in the earth's shadow,  

DLR